Location: Les Jeannots
(43.2262°N, 5.5774°E)
Time: 18:33:43
(UTC+00:00)

Cosmos 1818 - Pass Details

Date: 05 July 2020
Orbit: 777 x 796 km, 65.0° (Epoch: 11 August)

Event Time Altitude Azimuth Distance (km) Brightness Sun altitude
Rises 20:45:42 0° 222° (SW) 3,265 6.7 -12.6°
Reaches altitude 10° 20:48:07 10° 226° (SW) 2,343 6.0 -12.9°
Maximum altitude 20:53:28 63° 307° (NW) 884 4.1 -13.5°
Drops below altitude 10° 20:58:52 10° 28° (NNE) 2,369 6.3 -14.1°
Sets 21:01:20 0° 32° (NNE) 3,304 7.1 -14.4°
